GFSSGP_850_dewp_078.txt.gz
Dewpoint
2 5 6 7 8 5 5 3 -0 -1 -2 -3 -3 -2 -1 -1 7 12 12 12 12 12 6 11 11 11 12 12 12 13 13 13 13 14 15 13 13 13 13 13 11 9 10 11 7 5 0 -9 -8
2 6 7 6 8 7 4 1 1 -1 -2 -2 -3 -3 -2 -1 10 12 13 13 14 13 7 9 12 11 13 13 13 13 14 14 13 14 14 14 14 13 12 9 6 9 13 12 9 8 -3 -7 -6
4 9 7 7 7 6 5 1 -1 -2 -2 -2 -3 -2 -2 7 10 13 14 14 15 15 9 8 13 13 12 13 13 13 14 13 13 13 14 14 13 11 2 4 4 7 13 12 10 8 -4 -4 -3
7 8 6 7 7 4 4 1 -2 -2 -3 -2 -2 -1 5 9 12 14 13 14 15 16 15 9 10 12 13 14 13 14 14 13 12 12 8 14 13 6 10 9 2 7 13 12 11 8 -3 -1 1
8 6 9 9 7 4 2 0 -1 -2 -3 -3 -2 -1 9 11 12 13 13 14 15 15 15 9 8 14 13 13 13 14 14 13 12 9 4 1 7 7 12 10 4 10 13 12 11 9 -2 4 4
8 5 8 10 8 4 1 -0 -1 -3 -4 -3 -2 -2 11 12 13 14 14 15 15 15 16 10 13 13 13 14 14 14 14 13 11 8 2 -0 5 12 11 8 4 11 12 12 11 8 0 4 5
7 6 8 7 7 5 2 0 -0 -2 -3 -3 -3 -2 11 13 14 14 14 14 15 16 16 11 14 14 12 13 14 13 13 13 12 8 2 -6 -4 11 12 9 4 7 12 11 11 7 2 3 5
7 5 4 3 4 3 0 -0 -0 -1 -2 -4 -3 -2 8 14 14 14 14 14 15 15 15 12 11 12 14 14 13 13 13 13 12 11 3 -9 -10 -4 10 10 10 10 10 10 7 5 1 1 4
6 7 6 3 0 1 -2 -0 -1 -1 -1 -2 -3 -1 13 14 14 14 14 14 14 15 14 14 14 13 14 13 13 13 13 13 13 11 7 -6 -9 -7 0 6 9 7 6 5 4 3 -2 0 4
5 7 6 2 -1 -1 -2 -2 -1 -0 -0 -0 -2 -1 11 13 13 14 14 14 14 15 15 14 14 13 13 13 13 13 13 13 13 12 3 4 -2 -6 -5 -1 -1 4 2 2 1 -1 -1 1 4
5 6 4 2 1 2 0 -1 -1 0 1 -1 -1 -2 6 12 14 13 15 15 15 15 14 13 14 13 13 14 13 12 13 13 13 12 8 4 10 6 2 -1 -4 -1 -1 -0 -1 -2 1 3 6
6 4 3 1 1 2 1 -0 -1 -1 -1 -2 -3 -3 -2 8 12 14 14 15 13 14 14 14 13 13 12 12 13 11 12 12 12 13 12 10 11 8 4 -2 -4 -3 -3 -3 -2 -2 2 5 9
5 4 2 1 1 2 2 1 -0 -2 -3 -2 0 -2 1 4 10 13 14 15 14 14 14 14 13 13 12 12 12 12 13 13 13 12 13 11 12 9 1 2 1 -2 -0 -0 2 3 5 9 9
3 4 4 2 1 2 3 3 2 -0 -1 -0 2 1 3 6 6 11 14 14 14 14 13 14 13 13 12 12 12 11 11 11 11 11 12 11 11 9 4 7 7 6 7 7 9 10 11 10 9
1 5 4 4 3 2 2 4 4 1 -0 1 1 1 2 3 8 9 13 13 14 14 14 12 12 13 13 13 13 12 11 10 9 10 10 9 10 9 6 6 7 8 9 9 10 10 11 10 10
1 4 7 4 4 3 1 4 2 2 1 1 1 1 1 2 3 9 11 11 14 14 14 14 13 12 13 14 14 13 13 11 11 10 10 9 8 8 7 5 5 7 7 8 10 10 10 10 9
2 7 7 6 3 3 3 3 1 1 1 1 0 -0 -1 -1 0 1 6 12 12 13 13 14 14 11 11 13 13 14 14 13 12 11 11 10 9 8 6 5 4 5 6 7 8 9 10 10 8
5 4 5 4 3 4 4 3 1 -1 -0 0 -0 -1 -1 -3 -3 -0 2 5 10 13 13 13 13 12 11 12 13 13 14 14 13 13 12 11 11 10 9 8 5 5 5 6 7 8 9 9 8
3 3 3 4 1 4 4 3 1 -0 -2 -2 -3 -3 -2 -2 -3 -4 -1 1 3 5 8 13 14 14 13 11 12 13 13 14 14 13 13 12 11 10 10 9 9 7 6 6 6 7 9 10 9
3 1 1 -0 0 -0 2 2 1 0 -1 -1 -1 -2 -3 -3 -3 -4 -4 -3 -1 2 3 5 10 13 14 13 11 12 10 11 12 13 12 13 12 11 10 10 10 10 9 9 8 8 8 8 9
5 2 1 1 -1 -1 1 2 1 -0 -1 -1 -1 -1 -2 -3 -3 -3 -3 -3 -2 -0 1 2 3 4 7 11 12 11 11 9 8 10 11 11 11 11 12 11 11 11 10 10 10 9 9 8 8
7 1 2 -0 2 5 -0 4 -0 -1 -1 -2 -2 -2 -2 -2 -3 -3 -2 -2 -1 -1 0 0 1 1 2 3 7 9 9 8 5 3 4 6 10 11 10 10 11 11 11 11 11 10 10 10 9
4 4 5 2 3 2 1 3 0 -3 0 -1 -2 -1 -1 -2 -3 -3 -2 -2 -2 -2 -0 -0 0 1 1 1 2 6 11 11 9 9 8 5 6 9 10 10 12 12 12 12 12 11 11 11 10
5 6 6 6 6 7 2 2 -0 -1 -0 -1 -2 -2 -3 -2 -2 -2 -2 -2 -3 -3 -3 -3 -2 -1 -0 0 0 0 4 7 10 11 12 12 12 11 9 9 10 11 11 12 12 12 11 11 11
6 6 8 8 8 6 3 2 0 -3 -4 -3 -3 -1 -0 0 2 2 2 3 1 -0 -1 -2 -1 -2 -3 -3 -2 -2 -1 2 7 9 10 11 10 11 10 11 11 12 12 12 12 11 11 11 11
6 6 6 7 8 4 1 3 0 -3 -2 -2 -1 0 1 2 3 3 4 4 2 1 0 -1 -1 -2 -2 -3 -3 -3 -3 -2 -2 3 8 10 11 11 11 11 11 11 10 10 10 10 10 10 10
5 6 3 5 5 5 3 1 -1 -3 -0 -0 0 1 2 3 3 3 4 3 2 1 1 1 1 1 1 0 -1 -1 -2 -2 -2 -2 -0 6 10 11 10 10 10 10 9 9 10 9 9 10 10
5 3 6 6 8 9 5 3 2 -0 1 0 1 2 2 3 4 3 4 3 2 2 2 2 2 2 1 1 1 1 1 1 0 -1 -1 -0 3 4 4 8 9 9 9 9 8 9 9 9 10
6 6 6 5 6 9 8 3 -2 -1 -1 -0 1 2 3 3 4 3 3 2 2 2 2 2 2 1 1 1 1 1 1 1 2 2 2 2 1 2 2 1 3 8 8 8 8 8 8 8 8
3 5 5 7 6 5 5 2 -5 -3 -2 -1 -1 -1 -0 1 3 4 3 2 2 2 2 2 1 2 2 2 2 2 2 2 2 3 3 3 3 3 2 3 4 6 7 7 7 6 6 6 7

GFSSGP_850_dewp_084.txt.gz
Dewpoint
5 5 6 6 6 6 7 4 1 1 -0 -2 -3 -2 1 4 8 7 12 11 12 10 7 7 9 10 12 12 12 12 12 12 13 13 13 13 13 12 11 10 11 11 6 1 -10 -10 -8 -7 -6
4 5 7 6 6 8 7 3 2 1 -0 -2 -3 -2 4 12 12 12 13 13 13 11 6 7 8 10 12 12 11 11 12 13 13 13 13 13 12 12 11 9 12 11 8 1 -9 -8 -6 -4 3
2 7 7 7 8 8 7 3 1 -1 -0 -2 -3 -2 8 12 12 12 12 13 14 11 7 7 10 11 12 11 11 11 12 13 13 13 14 11 11 9 7 9 13 12 9 1 -7 -7 -4 0 6
7 8 7 7 6 6 5 3 1 1 0 -2 -2 3 11 12 11 11 12 13 13 10 8 9 10 11 11 11 12 12 12 11 9 11 12 8 6 -2 -2 5 13 12 11 3 -5 -4 -1 4 8
10 8 9 9 7 3 3 3 2 1 1 -1 -2 6 12 13 13 12 13 13 13 11 9 11 12 11 12 12 13 12 11 10 8 8 9 -0 -2 1 -1 7 13 12 11 7 -4 0 1 5 8
9 7 10 10 7 5 2 2 3 2 1 -1 -2 11 12 14 13 13 13 14 14 11 10 13 13 12 13 12 13 13 12 10 7 2 -3 -2 0 2 -2 6 12 11 10 7 -3 1 2 4 7
8 7 9 8 8 6 5 4 4 4 -0 0 -2 10 14 14 14 14 15 15 15 10 11 13 13 14 13 12 13 13 12 9 6 1 -3 -6 5 1 0 4 11 10 7 5 -2 0 3 4 6
9 5 7 7 8 7 4 5 5 4 2 -0 -1 11 13 14 13 15 15 15 14 11 11 14 13 13 13 13 13 13 12 10 8 2 -3 -5 2 0 -0 1 8 7 6 3 0 -2 2 4 5
8 6 7 7 7 6 3 6 5 3 4 2 3 8 6 13 13 14 16 15 14 15 13 11 14 13 14 14 14 13 12 11 9 3 -2 -3 -1 -1 -2 -2 3 7 5 3 1 -2 1 3 5
8 7 7 4 3 4 1 4 3 2 3 3 9 9 13 13 11 13 15 15 15 14 15 9 12 13 13 14 14 13 13 12 10 3 -5 -4 1 -1 -2 -1 1 5 4 2 1 -1 -2 2 5
7 7 5 3 2 2 2 2 0 4 5 4 6 9 13 11 11 13 14 14 14 14 15 13 14 13 13 14 13 12 13 11 8 2 -2 -6 -3 -2 -2 0 3 4 3 1 1 -1 -2 1 4
8 6 4 4 3 2 2 1 0 1 4 3 2 9 11 10 10 11 13 14 14 14 14 12 13 13 13 13 13 12 12 11 8 6 6 0 -6 -6 -6 -4 -2 1 2 1 0 -2 -2 1 3
6 6 5 4 3 3 2 2 0 -1 1 4 -0 6 7 8 7 10 11 13 14 14 14 13 12 12 13 13 12 12 12 11 10 10 10 8 1 2 2 1 -1 -1 -2 -1 0 -1 -1 1 5
3 4 5 4 4 3 3 3 3 0 -0 1 1 2 8 8 7 7 9 10 13 13 13 14 13 13 13 12 12 12 11 11 11 11 12 11 6 6 7 6 -0 -1 -3 -3 -3 -1 -1 1 4
2 5 5 4 4 3 3 4 4 1 1 0 0 1 3 7 9 6 7 11 12 13 13 13 13 14 13 13 13 12 10 11 12 11 12 11 10 8 7 7 2 1 1 -0 -0 1 3 4 7
2 4 6 3 4 4 2 5 2 2 1 1 -1 1 1 6 8 9 8 8 9 12 13 14 13 13 13 13 13 12 11 12 12 11 11 10 9 8 8 7 4 2 2 3 3 4 6 8 9
4 5 6 5 4 4 3 4 1 1 2 1 0 -0 1 1 9 10 10 10 8 10 12 14 14 13 13 12 12 12 12 11 11 10 10 9 9 9 8 7 5 4 3 3 4 6 7 8 9
5 5 5 5 4 4 4 3 1 1 1 1 1 0 0 1 3 8 9 9 8 8 11 12 14 13 13 13 12 12 13 12 11 11 9 9 8 8 8 8 8 7 5 4 4 5 7 8 9
2 4 5 3 2 5 5 4 3 1 0 0 1 1 0 0 0 0 4 5 7 7 12 12 13 12 13 13 12 13 13 12 13 12 12 10 10 9 9 9 9 8 8 6 5 5 6 7 9
5 4 4 4 2 4 5 5 3 2 1 0 -0 -1 -1 -1 -0 -1 -1 3 5 3 7 12 13 12 12 13 13 13 13 13 12 12 11 12 11 10 10 10 10 10 9 9 8 6 6 7 8
6 5 3 3 1 2 4 5 5 3 2 1 1 -0 -1 -2 -1 -2 -2 0 2 7 3 9 12 12 13 12 12 12 13 13 13 12 12 11 10 10 10 10 10 10 11 10 10 9 8 8 8
7 4 4 2 2 5 3 6 3 3 2 1 1 1 -1 -2 -2 -3 -3 -3 -1 4 7 7 6 7 12 13 12 11 11 12 12 12 11 11 11 11 11 10 10 10 11 12 11 11 10 9 9
6 3 5 5 6 4 4 6 3 1 3 1 0 0 -0 -2 -2 -2 -3 -2 -0 3 5 7 8 8 6 9 9 10 12 13 12 12 12 11 11 12 12 10 10 11 12 12 12 12 11 10 10
2 5 6 6 7 8 4 5 3 0 2 1 -1 -1 -0 -1 -2 -2 -2 -2 -1 1 2 3 3 3 2 2 3 3 3 6 9 9 9 8 8 9 9 10 11 9 11 11 11 12 11 11 11
4 6 7 8 8 7 3 4 3 -1 -3 -4 -4 -3 -2 -1 -2 -2 -2 -2 -2 -1 -0 0 1 1 1 1 1 1 2 2 3 4 6 6 6 8 10 10 10 10 9 9 10 10 11 10 11
4 5 7 8 7 5 3 5 2 -2 -3 -4 -3 -4 -2 -1 -1 -1 -2 -2 -2 -2 -2 -2 -2 -1 -1 -1 -1 1 1 1 1 2 2 5 7 8 9 9 10 9 9 10 10 10 9 9 9
5 5 5 4 3 3 3 2 -2 -0 0 -0 0 -1 1 1 1 0 0 -0 -1 -1 -2 -3 -3 -3 -3 -3 -2 -2 -1 -0 0 0 -0 -0 0 4 9 11 11 9 8 9 9 9 9 9 8
4 3 5 2 6 5 3 3 2 1 2 2 2 2 3 3 2 2 2 2 1 0 -0 -0 -0 -1 -1 -1 -1 -1 -2 -3 -3 -2 -2 -2 -1 -1 0 6 10 9 7 9 9 8 7 8 8
6 6 5 3 2 3 3 4 -1 -1 1 2 2 2 3 3 3 3 3 2 1 1 1 1 1 1 1 1 0 0 0 0 0 0 0 -0 -0 0 1 2 6 8 9 8 9 7 7 7 7
3 5 4 3 6 0 2 2 -4 -4 -1 1 2 2 3 3 3 3 3 3 2 2 2 2 2 1 1 1 1 1 1 1 1 1 2 2 2 2 2 2 2 3 3 2 4 6 6 6 6

GFSSGP_850_dewp_090.txt.gz
Dewpoint
6 7 6 9 4 4 4 2 3 1 -0 -2 -2 -2 -2 -2 8 9 11 10 8 7 13 12 12 12 12 12 12 12 12 13 13 12 11 10 9 8 9 4 -1 -10 -8 -5 -4 -1 -1 -3 -6
6 7 6 7 5 6 4 3 2 1 -0 -1 -2 6 7 9 10 10 13 8 7 8 13 12 12 11 11 11 11 12 12 13 13 12 11 12 11 9 11 7 2 -10 -12 -12 -10 -6 -6 -6 -5
6 7 7 7 6 7 4 2 1 -0 -0 0 -2 1 4 10 11 11 13 9 7 7 14 12 12 11 11 11 11 12 12 11 12 12 13 12 11 9 13 10 5 -9 -10 -10 -10 -9 -5 -1 0
6 6 7 8 8 5 2 2 0 2 1 1 2 1 11 12 11 12 11 12 10 7 12 13 12 12 12 11 12 12 11 12 13 14 14 12 10 9 13 11 8 -7 -8 -9 -7 -4 0 1 4
8 7 9 9 8 6 3 2 2 2 2 2 1 -0 11 13 12 12 11 12 9 9 12 14 14 14 13 12 11 12 13 14 13 14 10 9 5 5 12 12 9 -4 -6 -6 -4 -0 3 3 7
9 8 10 10 8 5 3 3 2 3 3 2 2 6 12 13 13 13 12 12 10 8 14 14 14 13 13 12 11 13 14 14 14 12 6 4 -3 -2 12 11 10 3 -3 -2 -1 2 4 5 6
8 7 8 8 8 6 5 2 3 3 4 3 2 8 10 13 14 13 13 13 13 10 13 14 14 14 13 11 13 13 14 12 13 10 2 -2 -3 -3 10 10 9 7 -2 -1 0 3 4 5 7
8 6 7 7 8 7 4 3 3 4 4 3 2 6 6 7 16 15 17 15 14 12 13 14 14 14 13 12 12 12 11 10 8 6 5 -0 -2 -2 8 8 8 5 -1 -1 1 2 4 6 7
8 8 8 7 7 6 4 5 4 4 4 4 4 3 3 7 14 16 17 15 15 13 12 14 14 14 13 14 13 12 11 9 7 4 3 4 4 -0 4 8 7 4 1 -2 1 2 4 5 6
7 7 6 4 5 5 5 4 4 4 5 4 4 3 4 11 14 15 15 16 15 14 13 13 14 13 13 14 14 13 11 10 8 4 -2 1 3 3 1 7 7 5 2 0 -2 2 3 5 5
6 7 5 4 4 4 6 6 5 5 6 4 4 3 5 15 13 11 14 16 15 14 13 13 13 13 14 13 14 13 12 11 9 4 -3 -4 1 0 1 4 9 7 4 2 1 -1 2 3 4
7 6 4 4 3 3 6 5 7 6 5 4 4 4 4 8 11 10 11 15 15 14 13 15 13 14 14 13 13 13 12 11 9 7 -0 -4 -2 -1 -2 -1 1 5 6 4 2 1 -2 2 3
5 5 5 4 4 4 3 2 6 7 2 4 4 3 3 4 9 10 10 12 15 14 12 12 13 13 14 13 13 13 12 11 10 6 1 -4 -4 -2 -3 -1 -1 2 2 2 2 1 -0 -2 1
4 4 4 5 5 4 3 2 3 4 5 5 4 3 3 4 8 10 10 11 12 13 13 14 13 13 14 13 13 13 13 11 11 9 5 4 2 -2 -4 -4 -3 -1 -0 1 1 1 1 -1 -0
4 5 3 4 5 5 3 4 3 2 3 3 4 4 4 4 3 9 10 9 11 12 12 12 13 12 13 13 13 13 13 12 12 11 9 9 8 4 1 4 4 3 1 1 0 0 -0 -0 -1
4 4 5 2 4 4 3 5 2 3 5 5 5 4 4 4 3 8 9 8 10 11 12 11 12 12 13 14 13 13 13 12 12 11 11 10 10 10 7 6 7 8 2 3 1 -1 0 -1 -1
4 7 5 5 4 4 3 5 1 2 4 6 6 6 4 3 3 7 9 9 8 8 10 12 12 11 12 12 12 13 12 12 12 11 11 10 11 11 10 8 7 8 6 3 4 4 4 3 4
5 4 5 4 5 4 4 3 1 1 2 2 5 4 4 3 3 4 8 9 9 6 8 10 12 12 12 12 13 13 13 13 12 11 11 11 11 10 10 9 9 8 8 6 5 4 5 5 6
5 2 5 4 4 5 5 4 3 2 1 2 1 1 3 3 3 2 6 8 8 9 9 9 11 13 13 13 13 13 13 13 12 11 11 11 11 10 9 9 9 9 8 8 8 7 6 6 7
4 4 4 3 4 4 5 5 3 2 2 1 1 1 1 2 2 2 2 9 8 8 9 9 8 10 11 12 12 11 11 11 12 11 11 11 11 10 10 9 9 9 9 9 9 9 9 8 8
4 3 4 4 3 2 4 5 4 3 3 2 2 1 -0 0 1 2 1 4 8 8 5 9 11 11 10 11 10 11 11 12 12 12 12 11 11 11 10 10 10 10 10 9 10 10 10 10 10
4 4 2 4 5 6 2 5 2 3 3 2 2 2 1 0 -1 -1 -1 -1 0 3 8 10 10 12 13 13 11 11 11 11 12 11 11 10 9 10 10 11 11 10 10 11 11 11 11 11 11
4 3 4 3 3 3 4 4 2 1 3 2 1 1 1 1 0 -1 -1 -2 -2 -1 -1 7 10 11 13 13 13 13 12 12 13 12 12 12 10 11 9 9 10 9 10 9 11 11 12 12 12
2 3 6 6 5 4 3 3 3 2 1 0 -0 -0 -1 -1 -0 -1 -1 -1 -2 -2 -2 0 5 8 7 12 12 12 12 12 12 11 11 11 11 10 10 10 9 9 10 10 9 9 10 11 11
3 4 7 7 7 4 2 5 3 -1 -2 -2 -2 -2 -2 -2 -3 -2 -1 -1 -2 -2 -2 -2 -1 4 6 6 8 8 8 9 10 11 10 10 10 10 10 11 11 11 9 9 9 10 10 10 11
4 3 5 5 6 5 3 5 2 -1 -2 -2 -3 -3 -3 -2 -2 -1 -1 -1 -2 -2 -2 -2 0 5 7 8 7 7 8 7 7 5 4 4 5 8 9 9 8 6 6 7 10 9 10 9 7
4 5 4 3 1 4 4 2 -0 -2 -2 -1 -2 -4 -4 -3 -2 -2 -1 -1 -1 -1 -1 1 3 6 7 7 7 6 4 3 2 1 1 1 1 2 2 2 1 1 2 6 11 10 10 10 9
2 1 4 2 2 4 2 3 2 -1 -1 -1 -1 -1 -2 -3 -3 -3 -1 -0 -0 -0 -0 0 1 1 1 1 1 0 0 0 -0 -1 -1 -2 -2 -1 0 0 -0 -0 1 6 10 9 9 9 9
4 4 3 3 2 1 3 3 -1 -2 -3 -1 -1 0 -1 -1 -0 0 1 1 -0 -1 -1 -1 -1 -2 -2 -2 -2 -2 -2 -2 -2 -3 -3 -3 -3 -2 -2 -2 -1 -1 -0 4 11 10 10 8 8
2 3 2 1 5 -0 -0 2 -3 -2 -3 -2 -0 1 2 1 2 2 2 1 1 0 -0 -1 -1 -1 -1 -1 -1 -1 -0 -0 -0 -0 -0 0 0 0 1 1 0 1 3 8 9 8 7 8 8

GFSSGP_850_dewp_096.txt.gz
Dewpoint
10 11 8 7 5 3 1 -0 -2 -0 -1 -1 -2 -3 -3 -1 4 9 11 14 14 16 15 12 10 11 12 12 12 11 11 11 11 11 9 5 4 -4 -9 -1 -1 -1 -1 0 -1 -2 -5 -10 -11
11 10 8 5 4 4 1 -2 1 -2 -2 -0 -1 -1 -1 -1 8 13 15 13 15 16 15 14 10 10 11 11 12 12 12 12 12 11 9 7 3 -2 -11 -11 -7 -4 -3 -2 -3 -6 -10 -10 -9
10 10 7 4 3 3 1 -1 -2 0 0 -0 -2 0 1 6 13 14 15 13 15 16 16 15 11 10 11 12 12 12 12 13 13 12 10 8 7 1 -11 -12 -12 -10 -6 -6 -8 -7 -4 1 4
9 8 8 6 4 2 -1 -1 -2 0 0 1 0 -0 9 14 14 15 14 14 15 16 16 14 12 11 11 12 12 13 13 13 12 12 10 10 10 6 -9 -11 -11 -10 -9 -7 -4 -3 7 11 8
9 8 9 6 3 1 -0 -2 -2 -0 0 1 0 1 8 15 14 14 15 15 15 16 17 14 14 13 12 12 12 13 13 12 13 13 12 9 12 9 -4 -9 -9 -8 -5 -1 1 6 6 8 9
8 8 9 8 4 1 0 -1 -1 -2 1 1 1 3 12 15 16 15 15 16 15 16 17 14 13 13 13 13 13 13 12 13 14 14 13 10 12 11 3 -7 -7 -5 -2 1 3 5 6 8 9
6 8 9 6 4 4 3 1 1 0 1 1 1 2 10 13 15 15 15 15 16 16 16 14 13 13 14 13 13 13 13 13 14 13 12 10 13 12 8 -4 -4 -3 -0 2 3 5 6 7 7
5 6 7 6 5 5 3 3 2 2 1 2 2 2 6 11 15 15 15 15 16 16 16 16 14 14 14 14 13 13 14 13 14 13 10 2 12 12 10 3 -2 -2 0 2 3 4 5 5 5
6 6 6 7 6 4 3 4 3 3 2 3 2 3 9 9 14 15 15 15 15 16 16 16 14 15 14 14 13 13 14 13 10 9 6 0 11 12 11 8 -0 -0 0 2 3 4 5 5 5
6 4 2 1 3 4 3 3 3 3 2 3 4 10 11 13 15 14 14 15 15 15 16 15 15 15 15 14 13 14 14 12 12 8 2 10 12 13 13 8 5 -1 1 1 2 4 5 6 6
4 4 -1 1 2 3 4 4 2 3 2 2 3 8 11 14 14 15 15 14 15 15 15 15 16 15 14 14 14 14 14 13 13 12 9 11 8 11 11 11 7 5 -1 1 2 3 4 6 7
3 1 2 2 3 3 4 4 4 3 1 2 2 5 7 10 13 14 14 14 14 15 14 14 15 15 14 14 14 14 13 13 11 8 6 6 7 7 12 10 11 10 4 7 2 5 3 3 3
4 -0 2 3 4 3 3 4 4 3 2 3 3 4 4 6 10 10 14 14 14 14 14 14 14 14 14 14 14 14 14 12 10 7 1 5 7 5 7 12 9 10 10 10 7 5 1 -1 1
3 3 1 2 4 4 3 3 4 3 4 4 4 4 4 4 6 7 11 13 13 13 14 14 14 13 14 14 14 14 14 13 10 9 4 -1 4 2 2 3 7 9 9 10 8 8 6 1 -1
2 4 2 2 2 4 4 4 4 2 3 4 4 4 4 4 4 6 11 12 13 13 12 14 13 13 13 14 14 14 13 13 12 10 8 3 -2 -0 0 1 1 3 6 7 5 3 3 3 1
2 4 7 1 2 3 4 4 2 2 2 2 3 2 3 4 4 5 5 7 12 12 11 14 14 13 14 14 13 14 14 13 13 12 9 4 0 -2 -1 -1 -1 2 2 2 2 2 2 2 1
1 6 4 1 2 1 4 2 2 2 3 2 2 2 2 3 4 3 5 4 4 11 12 11 13 13 14 15 14 14 14 13 13 12 11 10 7 7 6 -1 2 5 6 5 2 3 1 2 1
4 3 0 0 0 3 3 2 2 2 3 2 3 3 3 3 3 3 4 4 5 11 12 11 12 11 11 13 14 14 14 14 14 13 13 12 11 10 10 9 5 7 8 8 4 3 4 4 4
3 -0 0 -1 -3 3 3 3 2 1 2 2 3 4 4 3 3 3 4 5 5 10 11 10 11 11 12 13 13 13 14 13 13 14 13 13 12 11 11 11 10 10 9 8 8 6 5 5 5
5 1 2 -0 0 2 2 4 2 1 1 1 1 3 4 4 3 4 4 3 4 10 9 9 10 11 12 11 12 12 12 13 13 13 13 13 12 11 11 11 11 11 10 9 9 8 8 8 7
5 4 1 3 2 1 1 4 4 2 2 1 1 1 4 3 3 4 4 4 4 7 10 10 9 9 10 11 11 12 12 12 11 11 11 12 11 12 11 11 11 10 10 9 9 9 9 10 9
6 4 5 -1 3 5 1 0 0 1 2 2 0 1 3 4 5 5 5 5 4 3 9 9 9 9 6 6 9 9 9 9 10 10 10 10 10 11 11 11 11 10 10 9 9 9 9 10 10
4 3 5 4 2 1 5 3 -3 -1 2 2 0 0 1 4 3 4 5 4 4 4 4 6 7 8 9 5 7 7 8 8 7 8 9 9 9 9 9 9 9 9 10 10 9 9 10 10 10
2 4 5 4 7 8 2 2 -2 1 1 0 -0 -0 2 2 2 3 4 3 4 4 4 4 5 4 5 6 7 5 6 7 8 8 6 9 8 8 9 7 4 6 8 8 9 9 10 10 10
3 4 7 8 8 4 -1 4 -2 -2 -2 -2 -1 -1 -0 1 2 1 1 3 2 2 0 4 5 5 5 5 6 6 6 6 8 7 8 9 7 8 8 8 8 7 7 8 9 10 9 10 10
4 4 6 7 6 3 2 2 -1 -4 -3 -3 -1 -2 -1 0 1 1 1 0 -0 -1 -1 -2 -1 -1 -1 6 6 6 7 6 7 7 7 7 7 8 7 7 8 9 9 10 10 10 11 10 10
4 5 3 4 2 2 2 0 -1 -2 -2 -2 -3 -2 -1 -1 -1 -0 0 -1 -1 -1 -1 -2 -2 -2 -1 2 5 6 6 5 5 6 6 6 6 5 6 4 4 3 4 6 6 6 7 7 8
4 2 4 4 5 2 4 3 -1 -1 -1 -2 -2 -2 -2 -2 -2 -1 -2 -2 -1 -1 -1 -1 -2 -2 -1 1 5 5 6 6 6 7 7 8 7 4 2 1 1 0 0 0 1 1 2 3 5
4 4 3 4 4 4 4 -0 -1 -2 -2 -2 -2 -2 -1 -0 0 0 -0 -1 -1 -1 -1 -1 -1 -0 2 5 7 8 9 9 8 7 4 2 2 1 -0 -1 -2 -3 -3 -3 -2 -1 0 2 7
3 1 1 6 6 3 4 2 -3 -2 -2 -3 -1 1 1 2 2 1 -0 -1 -0 0 0 0 1 2 3 3 3 3 2 2 1 1 -0 -1 -1 -2 -2 -2 -2 -2 -2 -2 -2 -1 -0 6 10

GFSSGP_850_dewp_099.txt.gz
Dewpoint
10 11 9 7 5 3 2 0 -4 -4 -4 -4 -3 -3 -0 1 6 12 13 13 14 16 14 12 12 12 13 13 13 11 10 11 11 9 6 4 -6 -3 1 4 6 10 13 8 -0 -4 -9 -10 -4
10 11 9 4 6 5 3 -2 -2 -3 -5 -4 -3 -3 -2 1 8 14 14 14 15 16 15 13 12 12 13 13 11 11 11 12 11 9 6 2 -4 -8 2 3 1 2 -0 -1 -5 -11 -11 -7 -2
9 11 8 6 5 5 2 -1 -2 -3 -2 -2 -3 -4 -3 4 11 13 15 14 15 15 15 14 11 12 12 12 11 12 12 12 12 10 8 4 -4 -10 -10 -7 -1 0 -3 -6 -9 -6 -5 -5 -3
9 10 9 7 7 3 -0 -3 -3 -2 -1 -2 -5 -4 7 14 13 13 15 14 14 15 15 13 11 11 11 12 12 12 12 13 12 11 11 8 0 -10 -10 -10 -6 -7 -9 -7 -3 3 8 5 3
8 8 10 8 4 2 -1 -3 -3 -1 -1 -1 -1 -1 5 15 15 15 15 14 14 14 15 14 13 12 12 12 12 13 13 13 12 11 10 11 6 -9 -10 -10 -9 -7 -4 -0 8 10 9 10 10
9 9 10 9 4 -0 -1 -2 -3 -3 -2 -1 -2 -0 11 14 15 15 14 14 14 15 15 14 14 14 13 12 13 13 13 12 12 12 10 13 10 -3 -9 -8 -6 -2 1 6 6 7 8 10 10
7 9 9 6 3 1 -1 -1 -3 -3 -1 -1 -0 2 11 15 16 15 15 15 15 14 16 15 14 14 14 13 13 13 12 13 13 12 11 13 11 3 -6 -6 -3 1 2 5 5 6 7 7 7
4 7 7 6 4 2 -1 -1 -2 -3 -1 1 1 5 9 14 16 15 15 15 14 15 15 16 15 14 13 14 14 13 13 13 13 13 11 13 12 8 -3 -4 -2 1 3 4 5 5 5 4 3
3 7 8 6 4 3 0 -0 -1 -1 -1 1 1 5 8 13 15 16 15 14 15 15 15 15 15 15 15 14 14 13 13 13 13 12 9 12 11 10 6 -1 -1 1 3 4 5 5 5 4 4
6 6 3 2 2 4 2 1 0 1 2 1 3 9 10 13 15 15 15 14 15 15 16 15 15 15 15 16 13 14 14 14 13 11 4 9 13 11 12 3 -1 0 2 3 4 5 5 5 5
5 2 -1 -1 0 2 3 7 4 2 3 1 2 7 11 12 13 15 15 15 14 15 15 16 15 15 15 14 14 15 14 13 13 13 11 11 13 13 13 6 1 -0 1 2 3 4 5 11 11
5 2 -1 -3 2 5 4 5 4 2 2 0 1 5 10 11 12 15 15 14 13 14 14 15 14 15 15 15 15 13 13 13 12 12 12 11 13 13 13 10 11 6 1 10 10 8 10 9 11
5 1 0 1 2 3 4 6 5 2 2 1 1 5 6 8 11 14 15 14 14 14 14 15 14 14 15 15 16 14 13 13 13 13 12 12 11 12 13 12 12 12 11 11 10 10 10 8 9
4 3 0 1 3 2 2 3 6 2 2 2 2 2 3 3 9 13 14 15 14 14 15 14 15 15 15 15 15 15 13 13 13 13 12 12 12 11 12 12 11 12 12 12 12 11 10 8 8
3 5 3 0 2 4 2 2 3 2 1 1 3 3 3 3 6 10 12 13 14 14 14 14 15 15 14 14 15 14 15 13 13 13 12 12 12 12 12 11 12 12 12 12 12 11 10 10 8
4 5 7 2 -0 4 3 2 0 1 0 1 2 2 3 3 4 7 10 11 12 13 14 13 13 14 14 15 14 14 15 14 14 13 13 12 12 12 11 11 11 12 12 12 12 11 10 10 10
3 5 7 2 -1 1 4 3 -1 -0 -0 -0 1 1 2 3 3 5 6 7 10 12 13 13 13 14 13 13 13 13 14 14 14 14 13 12 11 11 10 10 10 11 11 10 11 10 10 10 9
4 2 5 4 1 -1 3 3 2 1 1 -0 -1 -1 0 1 2 4 6 6 6 9 12 13 14 13 13 13 13 13 13 14 14 14 13 13 12 11 10 11 10 10 11 10 8 6 6 8 9
5 0 -1 0 -2 -0 -1 -0 -0 1 2 1 -0 -1 -1 -1 1 3 5 6 5 6 12 12 13 12 13 13 14 14 13 13 14 13 14 13 13 12 11 12 11 10 10 10 9 8 8 4 5
4 6 -1 -1 -3 -0 -1 -1 -2 -0 1 1 0 -0 0 1 1 2 4 5 6 6 11 12 13 12 11 13 12 12 13 13 14 14 14 14 13 13 13 12 12 12 9 9 9 9 7 6 6
5 6 1 -0 0 -1 -1 1 0 -1 0 1 1 0 1 1 2 1 3 5 5 6 9 12 13 11 11 12 13 12 13 13 13 13 13 13 13 13 12 12 12 12 12 11 10 9 8 9 8
6 3 4 1 3 4 -1 5 -0 -1 -0 0 0 0 0 2 2 2 2 4 4 4 7 10 10 10 10 11 12 11 11 11 12 12 11 11 12 12 12 12 12 12 11 11 11 10 10 10 10
6 2 3 4 5 1 1 2 -1 -1 0 0 -0 -1 0 1 2 3 2 5 4 4 5 9 10 11 10 8 7 10 10 9 9 10 10 10 9 10 10 11 11 11 11 11 10 10 10 10 10
3 4 3 3 6 7 4 1 -1 -2 -1 -2 -2 -1 -2 -0 2 3 5 5 5 4 5 5 10 10 10 9 6 6 8 8 8 8 9 9 9 10 9 9 10 9 9 9 9 8 9 9 9
5 6 7 7 7 4 1 1 -1 -5 -5 -6 -5 -2 -2 -1 1 3 5 5 4 5 5 5 5 7 8 8 8 8 6 5 6 8 8 8 9 9 9 9 8 8 7 7 8 5 6 8 9
5 6 6 6 5 3 -1 7 -2 -4 -4 -4 -4 -3 -2 -1 1 2 2 5 4 4 2 4 5 4 5 6 7 8 7 7 7 6 6 7 8 9 10 10 7 7 6 7 7 8 8 8 8
5 5 3 6 5 2 3 -1 -3 -4 -4 -4 -3 -2 -2 -2 -0 1 2 2 3 2 3 4 4 2 6 9 6 6 7 8 8 8 9 9 8 7 7 9 6 6 8 8 8 7 7 9 11
4 1 5 5 8 5 3 -1 -3 -4 -3 -4 -4 -3 -2 -2 -2 0 1 1 2 1 2 1 -0 -1 -1 0 -0 5 7 7 7 7 8 7 7 8 8 8 8 8 8 7 5 4 5 5 5
5 6 3 4 4 7 5 1 -2 -2 -3 -4 -4 -3 -3 -2 -2 -1 -0 1 2 2 0 -1 -1 -1 -1 2 5 8 8 7 7 8 8 8 7 7 8 7 4 3 1 0 -0 -1 -1 0 1
3 4 2 6 5 4 5 3 -3 -2 -2 -3 -3 -2 -1 -1 -0 -0 -0 1 3 1 0 0 0 1 2 3 5 6 7 8 8 8 8 6 5 2 1 0 -1 -2 -2 -2 -2 -2 -2 -1 1